This demonstration page uses our WeatherBlox Daily Observations layout. Learn more.

Left ArrowRight Arrow

Hourly Observations for May 29, 2017

Temp ( °F °C ) Dew Point ( °F °C ) Humidity (%) Winds ( mph kmh ) Pressure ( in mb ) Visibility ( mi km ) Precip ( " mm )
12:53 am 00:53 Clear 71 21.7 66 18.9 84 84 W 3 6 29.91 1013 10 16 0.00 0.00
1:53 am 01:53 Clear 70 21.1 66 18.9 87 87 SW 6 9 29.93 1014 10 16 0.00 0.00
2:53 am 02:53 Clear 69 20.6 66 18.9 90 90 SW 5 7 29.95 1014 10 16 0.00 0.00
3:53 am 03:53 Partly Cloudy 70 21.1 66 18.9 87 87 S 3 6 29.95 1014 10 16 0.00 0.00
4:53 am 04:53 Cloudy 71 21.7 67 19.4 87 87 Calm 29.96 1015 10 16 0.00 0.00
5:53 am 05:53 Mostly Cloudy 70 21.1 66 18.9 87 87 W 5 7 29.96 1015 10 16 0.00 0.00
6:53 am 06:53 Sunny 69 20.6 66 18.9 90 90 Calm 29.96 1014 10 16 0.00 0.00
7:53 am 07:53 Sunny 71 21.7 67 19.4 87 87 Calm 29.97 1015 10 16 0.00 0.00
8:53 am 08:53 Sunny 73 22.8 67 19.4 81 81 VRB 3 6 29.99 1016 10 16 0.00 0.00
9:53 am 09:53 Sunny 76 24.4 67 19.4 74 74 Calm 30.00 1016 10 16 0.00 0.00
10:53 am 10:53 Sunny 79 26.1 67 19.4 67 67 WNW 7 11 30.01 1016 10 16 0.00 0.00
11:53 am 11:53 Sunny 81 27.2 67 19.4 62 62 W 10 17 30.02 1017 10 16 0.00 0.00
12:53 pm 12:53 Partly Cloudy 83 28.3 68 20 61 61 SW 5 7 30.01 1016 10 16 0.00 0.00
1:53 pm 13:53 Mostly Cloudy 83 28.3 68 20 61 61 WSW 7 11 30.00 1016 10 16 0.00 0.00
2:53 pm 14:53 Cloudy with Nearby Thunderstorms 80 26.7 69 20.6 69 69 NW 8 13 30.00 1016 10 16 0.00 0.00
3:11 pm 15:11 Cloudy with Thunderstorms 78 25.6 69 20.6 74 74 Calm 30.00 1016 3 4 0.06 1.52
3:20 pm 15:20 Cloudy with Nearby Thunderstorms 75 23.9 72 22.2 90 90 SSE 21 33 30.00 1016 3 5 0.11 2.79
3:22 pm 15:22 Cloudy with Thunderstorms 73 22.8 71 21.7 94 94 SSE 22 35 30.00 1016 1 2 0.17 4.32
3:33 pm 15:33 Cloudy with Thunderstorms 72 22.2 69 20.6 91 91 SE 9 15 30.00 1016 3 5 0.19 4.83
3:53 pm 15:53 Cloudy with Thunderstorms 71 21.7 71 21.7 100 100 SSE 10 17 30.02 1017 3 5 0.22 5.59
3:57 pm 15:57 Cloudy with Strong Thunderstorms 71 21.7 70 21.1 96 96 S 12 19 30.03 1017 2 3 0.08 2.03
4:12 pm 16:12 Cloudy with Strong Thunderstorms 70 21.1 69 20.6 97 97 SW 7 11 30.06 1018 2 3 0.31 7.87
4:26 pm 16:26 Cloudy with Strong Thunderstorms 70 21.1 70 21.1 100 100 WSW 6 9 30.06 1018 1 1 0.56 14.22
4:38 pm 16:38 Cloudy with Strong Thunderstorms 70 21.1 70 21.1 100 100 VRB 5 7 30.06 1018 1 1 0.74 18.80
4:53 pm 16:53 Cloudy with Thunderstorms 69 20.6 69 20.6 100 100 Calm 30.01 1016 1 2 0.89 22.61
4:57 pm 16:57 Cloudy with Rain 70 21.1 69 20.6 97 97 E 6 9 30.00 1016 3 5 0.00 0.03
5:30 pm 17:30 Cloudy 72 22.2 71 21.7 97 97 ENE 8 13 29.97 1015 10 16 0.00 0.03
5:53 pm 17:53 Mostly Cloudy 73 22.8 70 21.1 90 90 ENE 5 7 29.99 1016 10 16 0.00 0.03
5:56 pm 17:56 Mostly Sunny 74 23.3 70 21.1 88 88 Calm 30.00 1016 10 16 0.00 0.00
6:53 pm 18:53 Partly Cloudy 74 23.3 70 21.1 88 88 Calm 29.99 1016 10 16 0.00 0.00
7:53 pm 19:53 Partly Cloudy 74 23.3 71 21.7 91 91 SW 5 7 30.00 1016 10 16 0.00 0.00
8:53 pm 20:53 Clear 73 22.8 71 21.7 94 94 Calm 30.01 1016 10 16 0.00 0.00
9:53 pm 21:53 Clear 71 21.7 71 21.7 100 100 Calm 30.02 1017 10 16 0.00 0.00
10:26 pm 22:26 Mostly Cloudy 72 22.2 72 22.2 100 100 Calm 30.03 1017 10 16 0.00 0.00
10:53 pm 22:53 Cloudy 72 22.2 72 22.2 100 100 Calm 30.05 1018 10 16 0.00 0.00
11:44 pm 23:44 Cloudy 71 21.7 71 21.7 100 100 Calm 30.06 1018 10 16 0.00 0.00
11:53 pm 23:53 Cloudy 71 21.7 71 21.7 100 100 Calm 30.05 1018 10 16 0.00 0.00

Powered by AerisWeather